Regional Weather Roundup
Issued by NWS

Home | Current Version | Previous Version | Text Only | Print | Product List | Glossary Off
Versions: 1 2 3 4 5 6 7 8 9 10 11 12 13 14 15 16 17 18 19 20 21 22 23 24 25 26 27 28 29 30 31 32 33 34 35 36 37 38 39 40 41 42 43 44 45 46 47 48 49 50

885
ASUS43 KBIS 230210
RWRND

NORTH DAKOTA REGIONAL WEATHER ROUNDUP
NATIONAL WEATHER SERVICE BISMARCK ND
800 PM CST MON JAN 22 2018

NOTE: "FAIR" INDICATES FEW OR NO CLOUDS BELOW 12,000 FEET WITH NO
SIGNIFICANT WEATHER AND/OR OBSTRUCTIONS TO VISIBILITY.


NDZ001>003-009>011-017-230300-
NORTHWEST NORTH DAKOTA

CITY           SKY/WX    TMP DP  RH WIND       PRES   REMARKS
WILLISTON      PTCLDY    22  18  85 S3        29.98S
MINOT          CLOUDY    18  16  92 SE10      30.00F FOG     WCI   6
MINOT AFB      CLOUDY    18  16  93 S10       29.99F FOG     WCI   6
$$

NDZ018>021-031>035-040>046-230300-
SOUTHWEST NORTH DAKOTA

CITY           SKY/WX    TMP DP  RH WIND       PRES   REMARKS
BISMARCK       CLOUDY    23  20  88 W3        30.05S FOG
DICKINSON      PTCLDY    24  17  74 W13       29.96S WCI  12
GARRISON         N/A     16  14  92 SE6       30.01F WCI   7
HETTINGER ARPT CLEAR     20  16  84 NW5       30.00F WCI  13
$$

NDZ004>008-012>016-024-026-027-054-230300-
NORTHEAST NORTH DAKOTA

CITY           SKY/WX    TMP DP  RH WIND       PRES   REMARKS
GRAND FORKS    CLOUDY    25  19  78 NE7       30.08S WCI  17
GRND FRKS AFB  CLOUDY    24  19  80 E7        30.07S WCI  16
DEVILS LAKE    CLOUDY    20  18  92 E9        30.05F WCI   9
$$

NDZ022-023-025-028>030-036>039-047>053-230300-
SOUTHEAST NORTH DAKOTA

CITY           SKY/WX    TMP DP  RH WIND       PRES   REMARKS
FARGO          CLOUDY    25  20  81 N15       30.03S WCI  13
JAMESTOWN      CLOUDY    21  20  96 N8        30.03S WCI  11
$$





USA.gov is the U.S. government's official web portal to all federal, state and local government web resources and services.